CW9259 Weather Reports


Display with metric or nautical units.
time (UTC)temp
F
wind
direction
speed
MPH
gust
MPH
rain 1hr
in
rain 24hr
in
rain mn
in
humidity
%
barometer
mb
20200401091503 41 25 2.0 3.0 0.00 0.00 0.00 65 1020.1
20200401084659 40 27 1.0 3.0 0.00 0.01 0.00 67 1020.2
20200401081733 39 15 1.0 3.0 0.00 0.01 0.00 72 1020.1
20200401074609 38 344 1.0 3.0 0.00 0.02 0.00 76 1020.1
20200401071718 38 256 2.0 8.0 0.00 0.02 0.00 80 1020.2
20200401064605 38 202 2.0 6.0 0.00 0.02 0.00 82 1020.2
20200401061546 38 161 0.0 1.0 0.00 0.02 0.00 86 1020.1
20200401054618 38 161 0.0 1.0 0.00 0.03 0.00 86 1020.0
20200401051614 38 111 0.0 0.0 0.00 0.03 0.00 81 1019.9
20200401044610 38 111 0.0 1.0 0.00 0.04 0.00 79 1019.8
20200401041615 38 111 0.0 2.0 0.00 0.04 0.00 87 1019.9
20200401034629 38 116 0.0 1.0 0.00 0.05 0.00 87 1019.9
20200401031629 38 115 0.0 1.0 0.00 0.05 0.00 85 1020.1
20200401024624 38 115 0.0 1.0 0.00 0.06 0.00 84 1020.3
20200401021606 38 116 0.0 1.0 0.00 0.06 0.00 89 1020.4
20200401014639 38 116 0.0 1.0 0.00 0.08 0.00 88 1020.7
20200401011650 39 116 1.0 4.0 0.00 0.08 0.00 88 1020.8
20200401004624 39 333 1.0 3.0 0.00 0.08 0.00 83 1020.9
20200401001547 38 260 0.0 1.0 0.00 0.08 0.00 87 1020.9
20200331234524 39 260 0.0 2.0 0.00 0.08 0.00 86 1021.1
20200331231821 39 260 0.0 1.0 0.00 0.08 0.00 86 1021.1
20200331224636 39 260 0.0 2.0 0.00 0.09 0.00 85 1021.2
20200331214612 39 260 1.0 2.0 0.00 0.09 0.09 87 1021.2
20200331211628 40 260 0.0 1.0 0.00 0.09 0.09 84 1020.9
20200331204711 40 244 1.0 2.0 0.00 0.09 0.09 84 1020.9
20200331201557 40 244 0.0 1.0 0.00 0.09 0.09 84 1020.6
20200331194608 39 244 0.0 1.0 0.00 0.09 0.09 84 1020.1
20200331191623 40 243 0.0 0.0 0.00 0.09 0.09 85 1019.7
20200331184604 40 243 1.0 3.0 0.00 0.09 0.09 82 1019.2
20200331181606 41 231 2.0 3.0 0.00 0.09 0.09 79 1018.6
20200331174627 41 231 1.0 3.0 0.00 0.09 0.09 74 1018.5
20200331171615 42 229 3.0 4.0 0.00 0.09 0.09 71 1018.3
20200331164609 42 231 3.0 5.0 0.00 0.09 0.09 69 1018.4
20200331161634 43 302 2.0 3.0 0.00 0.09 0.09 68 1018.2
20200331154701 43 5 0.0 2.0 0.00 0.09 0.09 66 1018.2
20200331151623 43 22 2.0 4.0 0.00 0.09 0.09 68 1018.3
20200331144731 42 11 0.0 3.0 0.00 0.09 0.09 72 1018.5
20200331141709 41 338 0.0 4.0 0.00 0.09 0.09 78 1018.9
20200331134611 40 306 3.0 7.0 0.00 0.09 0.09 79 1019.3
20200331131708 40 309 2.0 4.0 0.00 0.09 0.09 79 1019.7
20200331124612 40 337 2.0 5.0 0.00 0.09 0.09 81 1019.9
20200331121631 39 5 4.0 6.0 0.00 0.09 0.09 85 1020.0
20200331114731 40 75 2.0 5.0 0.00 0.09 0.09 80 1020.1
20200331111611 40 37 2.0 4.0 0.00 0.09 0.09 83 1020.3
20200331104634 40 39 4.0 9.0 0.00 0.09 0.09 83 1020.3
20200331101619 40 12 4.0 6.0 0.00 0.09 0.09 85 1020.1
20200331094552 39 5 4.0 6.0 0.00 0.09 0.09 85 1020.0